Rush City, MN

9:05 AM CDT on August 30, 2016 (GMT -0500)
Rush City Regional

Weather History for KROS - August, 2013

Change the Weather History Date:

Thursday, August 1, 2013

  Actual Average (KCBG) Record (KCBG)
Temperature  
Mean Temperature 64 °F -  
Max Temperature 78 °F 81 °F 98 °F (1964)
Min Temperature 51 °F 57 °F 42 °F (1968)
Growing Degree Days 14 (Base 50)    
Moisture  
Dew Point 53 °F    
Average Humidity 67    
Maximum Humidity 93    
Minimum Humidity 41    
Precipitation  
Precipitation 0.00 in - - ()
Sea Level Pressure  
Sea Level Pressure 29.97 in    
Wind  
Wind Speed 4 mph (West)    
Max Wind Speed 9 mph    
Max Gust Speed 21 mph    
Visibility 10 miles    
Events      
Averages and records for this station are not official NWS values.
T = Trace of Precipitation, MM = Missing Value Source: NWS Daily Summary

Daily Weather History Graph

Daily Weather History Graph

Search for Another Location

Airport or City:

Trip Planner

Search our weather history database for the weather conditions in past years. The results will help you decide how hot, cold, wet, or windy it might be!

Date:

Astronomy

Aug. 01, 2013 Rise Set
Actual Time 5:55 AM CDT 8:40 PM CDT
Civil Twilight 5:21 AM CDT 9:14 PM CDT
Nautical Twilight 4:37 AM CDT 9:57 PM CDT
Astronomical Twilight 3:46 AM CDT 10:47 PM CDT
Moon 1:30 AM CDT (8/1) 4:51 PM CDT (8/1)
Length of Visible Light 15h 53m
Length of Day
14h 44m
Waning Crescent, 23% of the Moon is Illuminated
Aug 1
Waning Crescent
Aug 6
New
Aug 14
First Quarter
Aug 20
Full
Aug 28
Last Quarter

Hourly Weather History & Observations

Time (CDT) Temp. Dew Point Humidity Pressure Visibility Wind Dir Wind Speed Gust Speed Precip Events Conditions
12:15 AM 54.9 °F 50.7 °F 86% 30.01 in 10.0 mi West 3.5 mph - N/A   Scattered Clouds
12:35 AM 54.7 °F 49.8 °F 84% 30.02 in 10.0 mi West 3.5 mph - N/A   Scattered Clouds
12:54 AM 55.0 °F 49.8 °F 83% 30.02 in 10.0 mi West 4.6 mph - N/A   Scattered Clouds
1:15 AM 55.4 °F 50.0 °F 82% 30.02 in 10.0 mi West 4.6 mph - N/A   Scattered Clouds
1:35 AM 54.5 °F 49.6 °F 84% 30.02 in 10.0 mi West 3.5 mph - N/A   Scattered Clouds
1:55 AM 54.5 °F 49.8 °F 84% 30.02 in 10.0 mi West 4.6 mph - N/A   Mostly Cloudy
2:15 AM 54.5 °F 49.6 °F 84% 30.02 in 10.0 mi West 3.5 mph - N/A   Mostly Cloudy
2:35 AM 54.3 °F 49.3 °F 83% 30.02 in 10.0 mi West 3.5 mph - N/A   Mostly Cloudy
2:55 AM 54.0 °F 49.1 °F 84% 30.02 in 10.0 mi West 3.5 mph - N/A   Scattered Clouds
3:15 AM 53.4 °F 49.1 °F 85% 30.01 in 10.0 mi Calm Calm - N/A   Scattered Clouds
3:35 AM 53.6 °F 49.5 °F 86% 30.01 in 10.0 mi West 3.5 mph - N/A   Mostly Cloudy
3:55 AM 53.1 °F 49.1 °F 86% 30.02 in 10.0 mi West 3.5 mph - N/A   Mostly Cloudy
4:15 AM 53.2 °F 49.3 °F 86% 30.02 in 10.0 mi Calm Calm - N/A   Mostly Cloudy
4:35 AM 52.2 °F 48.7 °F 88% 30.02 in 10.0 mi West 3.5 mph - N/A   Mostly Cloudy
4:55 AM 52.2 °F 48.9 °F 89% 30.02 in 10.0 mi Calm Calm - N/A   Mostly Cloudy
5:15 AM 52.0 °F 48.6 °F 88% 30.02 in 10.0 mi Calm Calm - N/A   Mostly Cloudy
5:35 AM 51.8 °F 48.4 °F 88% 30.02 in 10.0 mi West 3.5 mph - N/A   Overcast
5:55 AM 51.8 °F 48.6 °F 89% 30.02 in 10.0 mi West 3.5 mph - N/A   Mostly Cloudy
6:15 AM 51.1 °F 48.2 °F 90% 30.02 in 10.0 mi Calm Calm - N/A   Mostly Cloudy
6:35 AM 51.3 °F 48.4 °F 90% 30.02 in 10.0 mi Calm Calm - N/A   Scattered Clouds
6:55 AM 53.8 °F 50.2 °F 88% 30.02 in 10.0 mi West 3.5 mph - N/A   Scattered Clouds
7:15 AM 56.5 °F 51.8 °F 84% 30.02 in 10.0 mi West 5.8 mph - N/A   Scattered Clouds
7:35 AM 57.9 °F 52.0 °F 81% 30.02 in 10.0 mi WNW 4.6 mph - N/A   Scattered Clouds
7:55 AM 59.2 °F 52.3 °F 78% 30.03 in 10.0 mi WNW 4.6 mph - N/A   Scattered Clouds
8:15 AM 60.8 °F 52.5 °F 74% 30.02 in 10.0 mi WNW 4.6 mph - N/A   Scattered Clouds
8:35 AM 62.8 °F 53.2 °F 71% 30.02 in 10.0 mi West 4.6 mph - N/A   Scattered Clouds
8:55 AM 64.9 °F 53.6 °F 67% 30.02 in 10.0 mi WNW 3.5 mph - N/A   Scattered Clouds
9:15 AM 66.4 °F 53.8 °F 64% 30.03 in 10.0 mi West 8.1 mph - N/A   Clear
9:35 AM 67.6 °F 53.8 °F 61% 30.02 in 10.0 mi WNW 5.8 mph - N/A   Clear
9:55 AM 68.7 °F 54.1 °F 60% 30.02 in 10.0 mi West 6.9 mph - N/A   Clear
10:15 AM 69.4 °F 53.8 °F 57% 30.02 in 10.0 mi WNW 6.9 mph - N/A   Clear
10:35 AM 70.7 °F 53.2 °F 54% 30.01 in 10.0 mi WNW 8.1 mph - N/A   Clear
10:55 AM 72.5 °F 52.9 °F 50% 30.01 in 10.0 mi WNW 5.8 mph - N/A   Clear
11:15 AM 72.9 °F 50.9 °F 46% 30.01 in 10.0 mi WNW 8.1 mph - N/A   Clear
11:35 AM 73.4 °F 50.0 °F 44% 30.01 in 10.0 mi West 5.8 mph - N/A   Clear
11:55 AM 74.3 °F 52.0 °F 46% 30.01 in 10.0 mi WNW 6.9 mph - N/A   Clear
12:15 PM 75.4 °F 51.4 °F 43% 30.01 in 10.0 mi West 8.1 mph 20.7 mph N/A   Clear
12:35 PM 75.4 °F 51.1 °F 42% 30.01 in 10.0 mi West 6.9 mph 16.1 mph N/A   Clear
12:55 PM 75.6 °F 50.5 °F 41% 30.00 in 10.0 mi NNW 5.8 mph - N/A   Clear
1:15 PM 75.9 °F 51.1 °F 42% 29.98 in 10.0 mi West 8.1 mph - N/A   Scattered Clouds
1:35 PM 75.9 °F 51.3 °F 42% 29.98 in 10.0 mi WSW 5.8 mph - N/A   Scattered Clouds
1:55 PM 75.9 °F 52.7 °F 44% 29.98 in 10.0 mi West 5.8 mph - N/A   Mostly Cloudy
2:15 PM 74.1 °F 52.3 °F 46% 29.97 in 10.0 mi WSW 4.6 mph - N/A   Overcast
2:35 PM 76.6 °F 54.1 °F 46% 29.96 in 10.0 mi SW 5.8 mph - N/A   Scattered Clouds
2:55 PM 76.6 °F 53.1 °F 44% 29.96 in 10.0 mi SW 4.6 mph - N/A   Scattered Clouds
3:15 PM 77.7 °F 53.8 °F 43% 29.95 in 10.0 mi WSW 8.1 mph - N/A   Scattered Clouds
3:35 PM 78.1 °F 53.4 °F 42% 29.94 in 10.0 mi Calm Calm - N/A   Scattered Clouds
3:55 PM 77.7 °F 53.6 °F 43% 29.94 in 10.0 mi West 8.1 mph - N/A   Scattered Clouds
4:15 PM 78.6 °F 54.1 °F 43% 29.93 in 10.0 mi WNW 8.1 mph - N/A   Scattered Clouds
4:35 PM 78.3 °F 53.2 °F 42% 29.93 in 10.0 mi WSW 9.2 mph - N/A   Scattered Clouds
4:55 PM 78.1 °F 53.1 °F 42% 29.92 in 10.0 mi WSW 5.8 mph - N/A   Scattered Clouds
5:15 PM 77.9 °F 52.9 °F 42% 29.91 in 10.0 mi West 8.1 mph - N/A   Scattered Clouds
5:35 PM 77.5 °F 53.6 °F 43% 29.90 in 10.0 mi West 6.9 mph - N/A   Clear
5:55 PM 76.6 °F 53.8 °F 45% 29.90 in 10.0 mi WSW 6.9 mph - N/A   Clear
6:15 PM 76.1 °F 54.9 °F 48% 29.89 in 10.0 mi West 3.5 mph - N/A   Scattered Clouds
6:35 PM 75.6 °F 54.5 °F 48% 29.89 in 10.0 mi SW 4.6 mph - N/A   Scattered Clouds
6:55 PM 74.8 °F 53.8 °F 48% 29.90 in 10.0 mi SW 3.5 mph - N/A   Scattered Clouds
7:15 PM 75.4 °F 54.5 °F 48% 29.89 in 10.0 mi SW 3.5 mph - N/A   Scattered Clouds
7:34 PM 74.7 °F 56.5 °F 53% 29.89 in 10.0 mi Calm Calm - N/A   Scattered Clouds
7:55 PM 73.4 °F 57.2 °F 57% 29.88 in 10.0 mi Calm Calm - N/A   Clear
8:15 PM 68.9 °F 58.6 °F 70% 29.88 in 10.0 mi Calm Calm - N/A   Clear
8:34 PM 67.5 °F 58.1 °F 72% 29.87 in 10.0 mi Calm Calm - N/A   Clear
8:55 PM 65.3 °F 57.2 °F 75% 29.87 in 10.0 mi Calm Calm - N/A   Clear
9:15 PM 63.5 °F 56.8 °F 79% 29.87 in 10.0 mi Calm Calm - N/A   Clear
9:34 PM 62.2 °F 56.7 °F 82% 29.88 in 10.0 mi Calm Calm - N/A   Clear
9:55 PM 60.8 °F 56.5 °F 86% 29.88 in 10.0 mi Calm Calm - N/A   Clear
10:15 PM 59.4 °F 55.8 °F 88% 29.88 in 10.0 mi Calm Calm - N/A   Clear
10:35 PM 58.8 °F 55.9 °F 90% 29.88 in 10.0 mi Calm Calm - N/A   Scattered Clouds
10:55 PM 57.9 °F 55.4 °F 91% 29.88 in 10.0 mi Calm Calm - N/A   Scattered Clouds
11:15 PM 57.0 °F 54.7 °F 92% 29.88 in 10.0 mi Calm Calm - N/A   Scattered Clouds
11:35 PM 58.6 °F 56.5 °F 93% 29.88 in 10.0 mi Calm Calm - N/A   Scattered Clouds
11:55 PM 59.0 °F 56.5 °F 91% 29.88 in 10.0 mi West 3.5 mph - N/A   Scattered Clouds